STARLINK-5205 (54202 NORAD) Tracking and Keplerian Element Data

This shows tracking and keplerian element data for the satellite.

Feedback or suggestion? Click here.




ElementValue
Catalog54202
NameSTARLINK-5205
Epoch Orbit407
Epoch Day325.25001157
Epoch Year2022
RAAN24.0734
Inclination53.2174
Eccentricity0.0002888
Argument of Perigee23.5143
Mean Anonmoly14.6402
Mean Motion15.73190221
Decay Rate0.00032587
L11 54202U 22141AX 22325.25001157 .00032587 00000+0 23577-3 0 9999
L22 54202 53.2174 24.0734 0002888 23.5143 14.6402 15.73190221 4070



Live tracking and technical data element details for STARLINK-5205 (NORAD 54202). STARLINK-5205 can be tracked NOW for your location showing map with azimuth and elevation plus other details from your city location.







IsCatalogInMostPopularTable: catalog: 54202, numindb: 4
Update: records affected: 1



GetName: 54202 STARLINK-5205

Hit Count: updated at: Mon, 28 Nov 2022 21:10:50 GMT